sat.trackr.live / text

‹ back to catalog

STARLINK-33666

NORAD 63592 · 2025-076Z

PAYLOAD ACTIVE UNKNOWN

§ Identity

Operator
Country
US
Launch date
2025-04-14
Launch site
AFETR
Launch vehicle
Mass (kg)
RCS (m²)

Purposes: comms

External: N2YO · Heavens-Above · Gunter

§ Orbital elements

Epoch: 2026-05-24T16:51:30.392640Z

Period
94.27 min
Inclination
43.0014°
Eccentricity
0.0001886
Mean motion
15.27585260 rev/d
Perigee alt
481.7 km
Apogee alt
484.3 km
Semi-major
6,861.2 km
B*
4.5670e-4
RAAN
252.5796°
Arg perigee
276.0235°
Mean anomaly
84.0402°
Rev number
6,345

§ Raw data

STARLINK-336661 63592U 25076Z   26144.70243510  .00012328  00000+0  45670-3 0  99942 63592  43.0014 252.5796 0001886 276.0235  84.0402 15.27585260 63450

JSON: /api/v1/satellites/63592 · /tle

For live sub-satellite position, see the globe view (requires WebGL).

§ Visibility from observer

Set your observer location to see the next 7 days of passes ≥ 10°. The values pass through the URL so the page stays shareable.

No JS? Fill the form by hand. The geolocation button needs JavaScript.